Newton, KS

8:06 AM CST on November 21, 2019 (GMT -0600)
Newton City County

Weather History for KEWK - August, 2019

Change the Weather History Date:

Friday, August 9, 2019

  Actual Average Record
Temperature  
Mean Temperature 73 °F -  
Max Temperature 82 °F 85 °F 102 °F (2006)
Min Temperature 64 °F 64 °F 62 °F (2013)
Cooling Degree Days 8    
Growing Degree Days 23 (Base 50)    
Moisture  
Dew Point 69 °F    
Average Humidity 90    
Maximum Humidity 100    
Minimum Humidity 70    
Precipitation  
Precipitation 0.00 in - - ()
Sea Level Pressure  
Sea Level Pressure 29.96 in    
Wind  
Wind Speed 5 mph (SE)    
Max Wind Speed 12 mph    
Max Gust Speed -    
Visibility 8 miles    
Events      
Averages and records for this station are not official NWS values.
T = Trace of Precipitation, MM = Missing Value Source: NWS Daily Summary

Daily Weather History Graph

Daily Weather History Graph

Search for Another Location

Airport or City:

Astronomy

Aug. 09, 2019 Rise Set
Actual Time 6:38 AM CDT 8:29 PM CDT
Civil Twilight 6:10 AM CDT 8:58 PM CDT
Nautical Twilight 5:35 AM CDT 9:33 PM CDT
Astronomical Twilight 4:58 AM CDT 10:09 PM CDT
Moon 4:11 PM CDT (8/9) 1:37 AM CDT (8/9)
Length of Visible Light 14h 48m
Length of Day
13h 51m
Waxing Gibbous, 70% of the Moon is Illuminated
Aug 9
Waxing Gibbous
Aug 15
Full
Aug 23
Last Quarter
Aug 30
New
Sep 5
First Quarter

Hourly Weather History & Observations

Time (CDT) Temp. Heat Index Dew Point Humidity Pressure Visibility Wind Dir Wind Speed Gust Speed Precip Events Conditions
12:56 AM 68.0 °F - 66.0 °F 93% 29.96 in 10.0 mi South 5.8 mph - N/A   Clear
1:56 AM 66.9 °F - 66.0 °F 97% 29.94 in 10.0 mi East 4.6 mph - N/A   Clear
2:56 AM 66.9 °F - 66.0 °F 97% 29.94 in 10.0 mi ESE 4.6 mph - N/A   Clear
3:56 AM 66.0 °F - 64.9 °F 96% 29.94 in 8.0 mi ESE 4.6 mph - N/A   Clear
4:56 AM 66.0 °F - 66.0 °F 100% 29.95 in 6.0 mi East 3.5 mph - N/A   Clear
5:23 AM 66.2 °F - 64.4 °F 94% 30.00 in 2.5 mi SSE 4.6 mph - N/A   Scattered Clouds
5:26 AM 66.2 °F - 66.2 °F 100% 30.00 in 1.2 mi SSE 3.5 mph - N/A   Mostly Cloudy
5:29 AM 66.2 °F - 64.4 °F 94% 30.00 in 0.8 mi SSE 3.5 mph - N/A   Mostly Cloudy
5:44 AM 66.2 °F - 64.4 °F 94% 29.99 in 1.0 mi SE 3.5 mph - N/A   Overcast
5:53 AM 64.4 °F - 64.4 °F 100% 29.98 in 0.8 mi SE 4.6 mph - N/A   Overcast
5:56 AM 64.9 °F - 64.9 °F 100% 29.94 in 0.8 mi ESE 4.6 mph - N/A   Overcast
6:04 AM 66.2 °F - 64.4 °F 94% 29.98 in 1.2 mi ESE 4.6 mph - N/A   Mostly Cloudy
6:09 AM 66.2 °F - 64.4 °F 94% 29.99 in 3.0 mi SSE 4.6 mph - N/A   Mostly Cloudy
6:17 AM 64.4 °F - 64.4 °F 100% 29.99 in 4.0 mi SSE 3.5 mph - N/A   Scattered Clouds
6:56 AM 64.9 °F - 64.9 °F 100% 29.98 in 5.0 mi SSE 4.6 mph - N/A   Clear
7:56 AM 66.9 °F - 66.9 °F 100% 29.99 in 6.0 mi Calm Calm - N/A   Clear
8:56 AM 69.1 °F - 69.1 °F 100% 30.00 in 10.0 mi Calm Calm - N/A   Clear
9:56 AM 71.1 °F - 70.0 °F 96% 29.99 in 10.0 mi ENE 3.5 mph - N/A   Scattered Clouds
10:27 AM 71.6 °F - 69.8 °F 94% 30.02 in 10.0 mi East 5.8 mph - N/A   Mostly Cloudy
10:47 AM 71.6 °F - 69.8 °F 94% 30.01 in 10.0 mi East 5.8 mph - N/A   Scattered Clouds
10:56 AM 72.0 °F - 69.1 °F 91% 29.98 in 10.0 mi East 6.9 mph - N/A   Partly Cloudy
11:24 AM 73.4 °F - 71.6 °F 94% 30.02 in 10.0 mi ESE 6.9 mph - N/A   Mostly Cloudy
11:56 AM 75.0 °F - 71.1 °F 87% 29.98 in 10.0 mi SE 11.5 mph - N/A   Overcast
12:56 PM 77.0 °F - 71.1 °F 82% 29.98 in 10.0 mi SE 6.9 mph - N/A   Overcast
1:56 PM 78.1 °F - 72.0 °F 81% 29.97 in 10.0 mi SSE 6.9 mph - N/A   Mostly Cloudy
2:56 PM 79.0 °F - 72.0 °F 79% 29.96 in 10.0 mi South 6.9 mph - N/A   Mostly Cloudy
3:56 PM 80.1 °F 83.8 °F 72.0 °F 76% 29.94 in 10.0 mi Variable 4.6 mph - N/A   Clear
4:34 PM 82.4 °F 87.2 °F 71.6 °F 70% 29.98 in 10.0 mi SE 6.9 mph - N/A   Mostly Cloudy
4:56 PM 81.0 °F 85.2 °F 72.0 °F 74% 29.93 in 10.0 mi SSE 4.6 mph - N/A   Mostly Cloudy
5:04 PM 80.6 °F 84.6 °F 71.6 °F 74% 29.97 in 10.0 mi East 5.8 mph - N/A   Scattered Clouds
5:56 PM 82.0 °F 86.7 °F 72.0 °F 71% 29.91 in 10.0 mi SE 9.2 mph - N/A   Mostly Cloudy
6:56 PM 79.0 °F - 72.0 °F 79% 29.90 in 10.0 mi SE 8.1 mph - N/A   Partly Cloudy
7:15 PM 80.6 °F 84.6 °F 71.6 °F 74% 29.94 in 10.0 mi SE 8.1 mph - N/A   Mostly Cloudy
7:22 PM 80.6 °F 84.6 °F 71.6 °F 74% 29.94 in 10.0 mi SE 5.8 mph - N/A   Mostly Cloudy
7:56 PM 79.0 °F - 72.0 °F 79% 29.90 in 10.0 mi SSE 6.9 mph - N/A   Clear
8:56 PM 75.0 °F - 72.0 °F 90% 29.90 in 10.0 mi SE 4.6 mph - N/A   Clear
9:56 PM 73.9 °F - 72.0 °F 93% 29.93 in 10.0 mi ESE 5.8 mph - N/A   Clear
10:56 PM 73.0 °F - 72.0 °F 96% 29.95 in 10.0 mi SE 6.9 mph - N/A   Scattered Clouds
11:56 PM 73.0 °F - 72.0 °F 96% 29.94 in 7.0 mi SE 9.2 mph - N/A   Clear